AUA62 LOWW-EDDB

Flight info

Callsign AUA62
Flight time N/A
Altitude 30000
Route LANUX DCT VLM DCT BEFRE T204 NUKRO NUKRO1R
Aircraft A320/M-SDE3FGHIRWY/LB1

Departure

Time 2026-05-05 13:49
Airport Vienna International Airport (LOWW)

Arrival

Time N/A
Airport Berlin Brandenburg Airport (EDDB)
Time Latitude Longitude Altitude Speed Heading
2026-05-05 13:07 48.11897 16.56767 610 ft 0 kts 206°
2026-05-05 13:08 48.11897 16.56768 611 ft 0 kts 206°
2026-05-05 13:42 48.11909 16.56776 624 ft 3 kts 205°
2026-05-05 13:42 48.11927 16.56788 627 ft 3 kts 202°
2026-05-05 13:43 48.11946 16.56799 619 ft 3 kts 196°
2026-05-05 13:43 48.11966 16.56806 621 ft 3 kts 183°
2026-05-05 13:43 48.11984 16.56804 627 ft 3 kts 147°
2026-05-05 13:43 48.11992 16.56794 622 ft 0 kts 116°
2026-05-05 13:46 48.11982 16.56823 619 ft 10 kts 117°
2026-05-05 13:46 48.11933 16.56974 623 ft 18 kts 116°
2026-05-05 13:46 48.11877 16.57144 611 ft 19 kts 116°
2026-05-05 13:46 48.11818 16.57322 613 ft 19 kts 116°
2026-05-05 13:47 48.11827 16.57506 613 ft 18 kts 75°
2026-05-05 13:47 48.11858 16.57675 611 ft 16 kts 77°
2026-05-05 13:47 48.11837 16.57828 617 ft 15 kts 129°
2026-05-05 13:47 48.11752 16.57914 613 ft 14 kts 163°
2026-05-05 13:48 48.11711 16.57931 620 ft 0 kts 165°
2026-05-05 13:48 48.11682 16.57943 616 ft 16 kts 164°
2026-05-05 13:48 48.11329 16.58091 619 ft 85 kts 165°
2026-05-05 13:48 48.10588 16.58406 624 ft 137 kts 164°
2026-05-05 13:49 48.09557 16.58848 943 ft 155 kts 168°
2026-05-05 13:49 48.08519 16.59291 1543 ft 162 kts 168°
2026-05-05 13:49 48.07406 16.59754 2194 ft 167 kts 169°
2026-05-05 13:49 48.06259 16.60344 2624 ft 188 kts 155°
2026-05-05 13:50 48.05206 16.61691 3083 ft 211 kts 132°
2026-05-05 13:50 48.04599 16.63762 3806 ft 226 kts 107°
2026-05-05 13:50 48.04660 16.66166 4568 ft 241 kts 79°
2026-05-05 13:50 48.05478 16.68387 5343 ft 250 kts 48°
2026-05-05 13:51 48.06820 16.70173 5808 ft 273 kts 42°
2026-05-05 13:51 48.08388 16.72003 6202 ft 297 kts 37°
2026-05-05 13:51 48.10106 16.73806 6925 ft 304 kts 35°
2026-05-05 13:51 48.11869 16.75618 7731 ft 309 kts 35°
2026-05-05 13:52 48.13730 16.77284 8545 ft 312 kts 22°
2026-05-05 13:52 48.15777 16.78240 9466 ft 311 kts
2026-05-05 13:52 48.17936 16.78474 10249 ft 312 kts 355°
2026-05-05 13:52 48.20156 16.78029 10556 ft 333 kts 346°
2026-05-05 13:53 48.22516 16.77403 10777 ft 356 kts 346°
2026-05-05 13:53 48.25011 16.76728 11193 ft 370 kts 347°
2026-05-05 13:53 48.27562 16.76037 11868 ft 375 kts 346°
2026-05-05 13:53 48.30146 16.75346 12539 ft 381 kts 347°
2026-05-05 13:54 48.32773 16.74617 13215 ft 385 kts 344°
2026-05-05 13:54 48.35322 16.73386 13878 ft 385 kts 334°